Location: Unspecified
(0.0000°N, 0.0000°E)
Time: 10:16:19
(UTC+00:00)

Hubble Space Telescope - Visible Passes

Search period start: 04 December 2016 00:00
Search period end: 14 December 2016 00:00
Orbit: 538 x 542 km, 28.5° (Epoch: 04 December)

Date Brightness Start Highest point End Pass type
(mag) Time Alt. Az. Time Alt. Az. Time Alt. Az.
05 Dec 2.8 19:13:35 10° NNW 19:14:51 16° N 19:14:51 16° N visible
06 Dec 1.8 19:03:14 10° NNW 19:06:35 28° NNE 19:06:35 28° NNE visible
07 Dec 1.3 18:53:02 10° NW 18:56:56 39° NNE 18:58:29 28° ENE visible
08 Dec 0.8 18:42:58 10° NW 18:47:03 58° NNE 18:50:32 14° ESE visible
08 Dec 3.7 20:25:02 10° W 20:26:01 15° WSW 20:26:01 15° WSW visible
09 Dec 3.8 04:59:03 10° S 05:00:47 12° SSE 05:02:33 10° SE visible
09 Dec 0.7 18:32:59 10° WNW 18:37:08 85° NNE 18:41:18 10° ESE visible
09 Dec 3.5 20:15:50 10° WSW 20:18:09 16° SSW 20:18:09 16° SSW visible
10 Dec 3.6 04:48:15 10° SSW 04:50:57 17° SSE 04:53:41 10° ESE visible
10 Dec 1.2 18:23:07 10° WNW 18:27:14 65° SSW 18:31:22 10° SE visible
10 Dec 3.8 20:07:06 10° SW 20:08:34 12° SSW 20:10:02 10° S visible
11 Dec 3.1 04:37:47 10° SSW 04:41:06 23° SSE 04:44:25 10° E visible
11 Dec 2.0 18:13:22 10° WNW 18:17:20 44° SSW 18:21:19 10° SE visible
12 Dec 2.5 04:27:30 10° SW 04:31:14 32° SSE 04:34:56 10° E visible
13 Dec 1.7 04:19:02 22° SSW 04:21:20 46° SSE 04:25:18 10° ENE visible
